星链-3830 (STARLINK-3830 )

导读

STARLINK-3830是美国SpaceX公司星链(Starlink)星座中的卫星,于2022年4月29日发射升空。该卫星运行在近地轨道,属于星链互联网星座组网卫星,依托星链星座的激光通信技术,为全球尤其是偏远地区、海洋等区域提供低延迟宽带互联网接入服务,采用霍尔效应推进器调整轨道,是星链大规模星座部署中的组成单元。

基本信息
目录编号:
52363
目录名称:
STARLINK-3830
国际标识:
2022-045AJ
轨道中心:
EARTH
卫星名称:
星链-3830
卫星全名:
星链-3830 (STARLINK-3830 )
卫星状态:
在轨 (已飞行1510 天)
发射日期:
2022-04-29 UTC
国别 :
美国 (US)
星等 :
--
轨道信息
数据来源 国际轨道数据 AOE轨道数据
星历时间 2026-06-17T10:14:14+0800
13小时前
查看轨道信息
2026-06-15T03:00:00+0800
2天前
查看轨道信息
半长轴 6917.888km 6917.932km
偏心率 0.0001369 0.000333
轨道倾角 53.161° 53.161°
近地点辐角 98.083° 35.657°
升交点赤经 112.789° 123.138°
平近点角 262.032° 56.136°
近地点 538.803km 537.491km
远地点 540.699km 542.099km
周期 95.438分钟 95.439分钟
每日圈数 15.088378 15.088233
详细信息
固有亮度:
5
最大亮度:
2.5
卫星平台:
Starlink v1.5
覆盖范围:
全球
运营商:
太空探索技术公司
运营商所在国:
美国
制造商(研发单位):
太空探索技术公司
制造商所在国:
美国
使用方式:
暂无
卫星简介
星链(Starlink)计划是由太空探索技术公司(SpaceX)提出的一个巨型低轨卫星互联网星座项目,计划在2019年至2024年间在太空搭建由约1.2万颗卫星组成的“星链”网络,其中1584颗将部署在地球上空550千米处的近地轨道,并从2020年开始工作。该卫星仍在工作。
2D轨道图
3D轨道图
轨道高度分析图
轨道倾角分析图
轨道综合分析图
查看轨道综合分析图